Regional Weather Roundup
Issued by NWS

Home | Current Version | Previous Version | Graphics & Text | Print | Product List | Glossary On
Versions: 1 2 3 4 5 6 7 8 9 10 11 12 13 14 15 16 17 18 19 20 21 22 23 24 25 26 27 28 29 30 31 32 33 34 35 36 37 38 39 40 41 42 43 44 45 46 47 48 49 50
000
ASUS43 KLOT 040308
RWRIL

ILLINOIS REGIONAL WEATHER ROUNDUP
NATIONAL WEATHER SERVICE CHICAGO/ROMEOVILLE IL
1000 PM CDT SUN MAY 03 2015

NOTE: "FAIR" INDICATES FEW OR NO CLOUDS BELOW 12,000 FEET WITH NO
SIGNIFICANT WEATHER AND/OR OBSTRUCTIONS TO VISIBILITY.

* THESE STATIONS ARE NOT UNDER NWS QUALITY CONTROL. THEY ALSO MAY NOT
  REPORT WEATHER SUCH AS PRECIPITATION OR FOG.

ILZ001-002-007-009-015-016-024-040400-
NORTHWEST ILLINOIS

CITY           SKY/WX    TMP DP  RH WIND       PRES   REMARKS
MOLINE         MOCLDY    74  54  49 S8        29.88R
STERLING*      CLOUDY    64  57  77 SE5       29.91R
SAVANNA*       CLOUDY    64  59  82 CALM      29.89R
$$

ILZ003-004-008-010-011-017-018-040400-
NORTH CENTRAL ILLINOIS

CITY           SKY/WX    TMP DP  RH WIND       PRES   REMARKS
ROCKFORD       PTCLDY    62  55  77 SE12      29.92R
FREEPORT*      CLOUDY    61  57  86 S8        29.91S
ROCHELLE*      MOCLDY    60  56  87 SE8       29.92R
DE KALB*       MOCLDY    60  55  85 SE10      29.93R
PERU*          PTCLDY    67  53  59 S12       29.92R
$$

ILZ005-006-012>014-019>023-040400-
NORTHEAST ILLINOIS

CITY           SKY/WX    TMP DP  RH WIND       PRES   REMARKS
CHICAGO-OHARE  MOCLDY    64  54  69 S13       29.92F
CHICAGO-MIDWAY MOCLDY    71  52  50 SE10      29.93F
AURORA         PTCLDY    62  56  80 SE7       29.93R
LANSING*       CLOUDY    64  53  67 CALM      29.95S
JOLIET*        PTCLDY    65  57  76 CALM      29.93S
WAUKEGAN       PTCLDY    62  56  80 S9        29.91R
DUPAGE AIRPORT PTCLDY    62  56  80 SE7       29.93R
KANKAKEE*      MOCLDY    68  50  51 S9        29.95S
WHEELING       MOCLDY    62  56  80 S8        29.92S
MORRIS*        PTCLDY    69  51  53 S12       29.91R
ROMEOVILLE*    PTCLDY    62  56  81 E6        29.93S
NORTHERLY ISL    N/A     62  52  69 SE10        N/A
$$

LMZ740>746-040400-
SOUTHERN LAKE MICHIGAN

STATION/POSITION SKY/WX   TEMP    WIND        PRES    VSBY  WAVE
                          AIR SEA DIR/SP/G                  HT/PER
                          (F)     (DEG/KT/KT) (MB)    (MI)  (FT/S)
HARRISON CRIB              67     190/ 14/ 15   N/A
BURNHAM HARBOR             59     160/  8/ 13   N/A
CALUMET HARBOR             64     170/  7/  8   N/A
BURNS HARBOR               57      90/  6/ 24 1015.2R
MICHIGAN CITY                     160/  1/  2   N/A
MICHIGAN CITY 6N           55 51  140/  4/  6   N/A           1
ST. JOSEPH                 55 49  220/ 10/ 10   N/A           1/ 2
$$

ILZ025>027-034>036-040-047-049-050-058-095>099-040400-
WEST-CENTRAL ILLINOIS

CITY           SKY/WX    TMP DP  RH WIND       PRES   REMARKS
QUINCY         CLEAR     73  51  46 S14       29.89S
GALESBURG*     PTCLDY    70  54  56 S5        29.91R
MACOMB*        CLEAR     70  53  54 S7        29.91R
JACKSONVILLE*  MOCLDY    75  49  40 S9        29.91F
PITTSFIELD*    MOCLDY    73  51  45 S9        29.93S
$$

ILZ028>032-037-038-041>044-048-051>054-059>061-040400-
CENTRAL ILLINOIS

CITY           SKY/WX    TMP DP  RH WIND       PRES   REMARKS
PONTIAC        PTCLDY    72  48  42 S17       29.95R
BLOOMINGTON    CLEAR     68  48  48 S16       29.96S
DECATUR        PTCLDY    70  44  39 S13       29.97F
PEORIA         FAIR      73  49  42 S13       29.92R
LACON*         CLEAR     73  48  41 S9G16     29.91R
LINCOLN*       CLEAR     71  47  41 S15       29.92S
SPRINGFIELD    PTCLDY    72  48  42 S18       29.93F
TAYLORVILLE    PTCLDY    68  45  42 S12       29.97S
$$

ILZ033-039-045-046-055>057-062-063-040400-
EAST-CENTRAL ILLINOIS

CITY           SKY/WX    TMP DP  RH WIND       PRES   REMARKS
CHAMPAIGN      CLEAR     69  45  41 S15       29.99S
DANVILLE*      CLEAR     67  45  43 S7        29.98S
RANTOUL*       PTCLDY    68  47  45 S7        29.98F
MATTOON        CLEAR     67  46  47 S9        30.00S
PARIS*         CLEAR     60  48  64 S6        30.03S
$$

ILZ079-100>102-040400-
SOUTHWEST ILLINOIS

CITY           SKY/WX    TMP DP  RH WIND       PRES   REMARKS
ALTON          PTCLDY    68  45  42 S14       29.98R
BELLEVILLE     CLOUDY    71  52  51 VRB5      29.98R
CAHOKIA*       CLOUDY    74  51  44 S8        29.98R
SPARTA*        CLOUDY    72  49  44 S7        30.02S
$$

ILZ064>066-069>071-074>076-080>082-084>086-088>090-092>094-040400-
SOUTH-CENTRAL ILLINOIS

CITY           SKY/WX    TMP DP  RH WIND       PRES   REMARKS
CARBONDALE     MOCLDY    66  48  52 S7        30.04R
CAIRO*         PTCLDY    70  46  42 S7        30.05S
EFFINGHAM*     PTCLDY    67  42  39 SE6       30.04R
MARION         PTCLDY    64  48  55 S5        30.05R
MT. VERNON     PTCLDY   N/A N/A N/A S6        30.04S
CENTRALIA*     PTCLDY    67  46  47 S9        30.02S
SALEM*         PTCLDY    71  44  37 S6        30.03R
METROPOLIS*    PTCLDY    69  49  49 SE3       30.06R
$$

ILZ067-068-072-073-078-083-087-091-040400-
SOUTHEAST ILLINOIS

CITY           SKY/WX    TMP DP  RH WIND       PRES   REMARKS
LAWRENCEVILLE  CLEAR     63  50  62 S8        30.05R
FLORA*         CLEAR     64  46  51 S7        30.04S
FAIRFIELD*     PTCLDY    66  47  49 S3        30.04R
HARRISBURG*    CLEAR     66  48  53 S3        30.07R
ROBINSON*      CLEAR     64  48  56 S7        30.05S
CARMI*         PTCLDY    62  48  59 S6        30.05R
$$

ABBREVIATIONS USED IN REMARKS
   TC - TEMPERATURE IN CELSIUS
  WCI - WIND CHILL INDEX
   HX - HEAT INDEX
  VSB - VISIBILITY
$$




USA.gov is the U.S. government's official web portal to all federal, state and local government web resources and services.